OneWeb SL0157

operational
NORAD ID: 48055 Int'l Des: 2021-025 Owner: ONEWEBN Country: UK Constellation: oneweb
LEOCIRCULARPOLARONEWEB_TYPE

About OneWeb SL0157

Description loading...

Live Position

Loading 3D Globe...

Upcoming Passes

Altitude History

Altitude vs Time

uPlot chart will show altitude changes over time

Two-Line Element Set

1 48055U 21025P 26034.38585334 .00000331 00000-0 87109-3 0 9991
2 48055 87.9032 346.8099 0001974 93.0003 267.1352 13.13471562236008
Epoch: Feb 3, 2026 • Age: 22 hours

Current Status

Altitude 1227.3 km
Velocity 7.24 km/s
Sub-Earth Point -42.99°S, 105.5°E
Launch Date Mar 25, 2021
Age 4.8 years
Type internet

Technical Details

Classification Payload
Mass 148.00 kg
Dry Mass 140.00 kg
Total Mass 148.00 kg
Length 1.30 m
Diameter 1.00 m
Span 5.00 m
Shape Trapezoid+2 pan
Manufacturer ONEWUS
Bus Type ARROW
Phase Status In Orbit
Owner/State ONEWEBN/UK

Large Constellations

Loading constellations...